BTI37D EVLA-EVRA

Flight info

Callsign BTI37D
Flight time N/A
Altitude 17000
Route BIENE DCT ORVIX
Aircraft B735/M-SDFHIW/S

Departure

Time 2026-04-17 14:38
Airport Liepāja International Airport (EVLA)

Arrival

Time N/A
Airport Riga International Airport (EVRA)
Time Latitude Longitude Altitude Speed Heading
2026-04-17 14:14 56.52003 21.09868 16 ft 0 kts 341°
2026-04-17 14:32 56.52009 21.09864 15 ft 3 kts 341°
2026-04-17 14:32 56.52029 21.09824 15 ft 6 kts 285°
2026-04-17 14:32 56.52023 21.09755 17 ft 6 kts 253°
2026-04-17 14:33 56.52006 21.09683 16 ft 5 kts 227°
2026-04-17 14:33 56.51979 21.09672 15 ft 2 kts 163°
2026-04-17 14:33 56.51944 21.09690 16 ft 7 kts 165°
2026-04-17 14:33 56.51883 21.09721 15 ft 11 kts 165°
2026-04-17 14:34 56.51807 21.09767 14 ft 12 kts 147°
2026-04-17 14:34 56.51791 21.09891 11 ft 11 kts 75°
2026-04-17 14:34 56.51818 21.10026 12 ft 11 kts 70°
2026-04-17 14:34 56.51842 21.10144 13 ft 10 kts 70°
2026-04-17 14:35 56.51866 21.10266 13 ft 12 kts 71°
2026-04-17 14:35 56.51900 21.10441 13 ft 18 kts 70°
2026-04-17 14:35 56.51950 21.10687 12 ft 23 kts 71°
2026-04-17 14:35 56.52005 21.10975 12 ft 22 kts 73°
2026-04-17 14:36 56.52011 21.11152 12 ft 4 kts 79°
2026-04-17 14:36 56.52022 21.11209 11 ft 1 kts 45°
2026-04-17 14:36 56.52036 21.11210 11 ft 3 kts 337°
2026-04-17 14:36 56.52044 21.11189 11 ft 1 kts 285°
2026-04-17 14:37 56.52040 21.11150 11 ft 5 kts 249°
2026-04-17 14:37 56.52011 21.10998 11 ft 37 kts 250°
2026-04-17 14:37 56.51832 21.10101 11 ft 115 kts 250°
2026-04-17 14:37 56.51492 21.08304 134 ft 179 kts 255°
2026-04-17 14:38 56.51050 21.06018 958 ft 203 kts 255°
2026-04-17 14:38 56.50677 21.03617 2118 ft 196 kts 261°
2026-04-17 14:38 56.50409 21.01214 2810 ft 183 kts 261°
2026-04-17 14:38 56.50038 20.98933 2185 ft 207 kts 252°
2026-04-17 14:39 56.49097 20.96468 2439 ft 245 kts 212°
2026-04-17 14:39 56.47520 20.95653 3798 ft 244 kts 177°
2026-04-17 14:39 56.45862 20.96579 4400 ft 261 kts 142°
2026-04-17 14:39 56.44715 20.99128 4676 ft 266 kts 105°
2026-04-17 14:40 56.44597 21.02298 5494 ft 252 kts 76°
2026-04-17 14:40 56.45096 21.05358 6348 ft 254 kts 65°
2026-04-17 14:40 56.45696 21.08476 7019 ft 272 kts 69°
2026-04-17 14:40 56.46357 21.11667 7525 ft 279 kts 63°
2026-04-17 14:41 56.47171 21.15066 7903 ft 305 kts 65°
2026-04-17 14:41 56.47963 21.18596 9196 ft 303 kts 65°
2026-04-17 14:41 56.48718 21.22019 9702 ft 283 kts 65°
2026-04-17 14:41 56.49456 21.25346 9540 ft 293 kts 64°
2026-04-17 14:42 56.50472 21.28726 9852 ft 314 kts 49°
2026-04-17 14:42 56.51945 21.31540 10806 ft 304 kts 44°
2026-04-17 14:42 56.53380 21.34423 11122 ft 315 kts 48°
2026-04-17 14:42 56.54724 21.37561 11590 ft 312 kts 51°
2026-04-17 14:43 56.56018 21.40740 11757 ft 317 kts 51°
2026-04-17 14:43 56.57348 21.43993 11835 ft 324 kts 51°
2026-04-17 14:43 56.58690 21.47244 12317 ft 319 kts 51°
2026-04-17 14:43 56.60031 21.50473 12585 ft 324 kts 51°
2026-04-17 14:44 56.61405 21.53772 12867 ft 328 kts 50°
2026-04-17 14:44 56.62776 21.57071 13414 ft 327 kts 50°
2026-04-17 14:44 56.64145 21.60374 13749 ft 327 kts 50°
2026-04-17 14:44 56.65530 21.63713 13778 ft 334 kts 50°
2026-04-17 14:45 56.66932 21.67092 14064 ft 334 kts 50°
2026-04-17 14:45 56.68324 21.70453 14444 ft 332 kts 50°
2026-04-17 14:45 56.69720 21.73822 14643 ft 336 kts 50°
2026-04-17 14:45 56.71133 21.77232 14970 ft 338 kts 51°
2026-04-17 14:46 56.72548 21.80649 15416 ft 338 kts 51°
2026-04-17 14:46 56.73959 21.84061 15735 ft 337 kts 51°
2026-04-17 14:46 56.75319 21.87356 15613 ft 324 kts 51°
2026-04-17 14:46 56.76678 21.90674 14818 ft 341 kts 52°
2026-04-17 14:47 56.77918 21.94563 14729 ft 357 kts 62°
2026-04-17 14:47 56.78940 21.98555 15754 ft 340 kts 62°
2026-04-17 14:47 56.79993 22.02458 16033 ft 347 kts 60°
2026-04-17 14:47 56.81126 22.06332 16474 ft 342 kts 59°
2026-04-17 14:48 56.82264 22.10114 16865 ft 338 kts 58°
2026-04-17 14:48 56.83397 22.13882 17118 ft 339 kts 59°
2026-04-17 14:48 56.84531 22.17682 17226 ft 344 kts 59°
2026-04-17 14:48 56.85677 22.21543 17185 ft 345 kts 59°
2026-04-17 14:49 56.86813 22.25386 16761 ft 341 kts 59°
2026-04-17 14:49 56.87930 22.29165 16229 ft 334 kts 59°
2026-04-17 14:49 56.89019 22.32847 15875 ft 323 kts 59°
2026-04-17 14:49 56.90075 22.36417 15537 ft 316 kts 59°
2026-04-17 14:50 56.91079 22.39951 15158 ft 310 kts 64°
2026-04-17 14:50 56.91644 22.43680 15066 ft 298 kts 76°
2026-04-17 14:50 56.92036 22.47416 14981 ft 305 kts 72°
2026-04-17 14:50 56.92611 22.51178 14589 ft 308 kts 69°
2026-04-17 14:51 56.93252 22.54862 14033 ft 307 kts 68°
2026-04-17 14:51 56.93896 22.58566 13527 ft 303 kts 69°
2026-04-17 14:51 56.94509 22.62192 13190 ft 293 kts 69°
2026-04-17 14:51 56.95094 22.65709 12885 ft 284 kts 69°
2026-04-17 14:52 56.95662 22.69117 12630 ft 274 kts 69°
2026-04-17 14:52 56.96203 22.72371 12590 ft 259 kts 69°
2026-04-17 14:52 56.96707 22.75470 12461 ft 250 kts 69°
2026-04-17 14:52 56.97196 22.78490 12312 ft 247 kts 69°
2026-04-17 14:53 56.97710 22.81585 12332 ft 264 kts 69°
2026-04-17 14:53 56.98264 22.84941 12076 ft 283 kts 69°
2026-04-17 14:53 56.98824 22.88419 11561 ft 284 kts 70°
2026-04-17 14:53 56.99378 22.91879 10958 ft 281 kts 70°
2026-04-17 14:54 56.99929 22.95307 10340 ft 279 kts 70°
2026-04-17 14:54 57.00474 22.98696 9723 ft 276 kts 70°
2026-04-17 14:54 57.01017 23.02063 9051 ft 275 kts 70°
2026-04-17 14:54 57.01547 23.05419 8480 ft 272 kts 71°
2026-04-17 14:55 57.01708 23.08866 7799 ft 278 kts 96°
2026-04-17 14:55 57.01221 23.12289 7210 ft 276 kts 100°
2026-04-17 14:55 57.00844 23.15716 6597 ft 272 kts 94°
2026-04-17 14:55 57.00639 23.19122 6095 ft 265 kts 91°
2026-04-17 14:56 57.00483 23.22445 5624 ft 259 kts 90°
2026-04-17 14:56 57.00323 23.25744 5169 ft 260 kts 91°
2026-04-17 14:56 57.00159 23.29060 4724 ft 262 kts 91°
2026-04-17 14:56 56.99985 23.32356 4234 ft 259 kts 91°
2026-04-17 14:57 56.99820 23.35642 3669 ft 261 kts 92°
2026-04-17 14:57 56.99259 23.38830 3132 ft 270 kts 121°
2026-04-17 14:57 56.97923 23.41174 2714 ft 270 kts 137°
2026-04-17 14:57 56.96556 23.43483 2333 ft 267 kts 129°
2026-04-17 14:58 56.95384 23.46110 2071 ft 264 kts 123°
2026-04-17 14:58 56.94314 23.48802 1927 ft 260 kts 121°
2026-04-17 14:58 56.93251 23.51496 1988 ft 263 kts 122°
2026-04-17 14:58 56.92163 23.54231 2030 ft 270 kts 122°
2026-04-17 14:59 56.91053 23.57012 1957 ft 270 kts 122°
2026-04-17 14:59 56.89951 23.59757 1921 ft 265 kts 122°
2026-04-17 14:59 56.88862 23.62468 1925 ft 264 kts 122°
2026-04-17 14:59 56.87782 23.65173 1917 ft 262 kts 122°
2026-04-17 15:00 56.86702 23.67868 1900 ft 263 kts 122°
2026-04-17 15:00 56.85610 23.70576 1981 ft 267 kts 122°
2026-04-17 15:00 56.84502 23.73339 1994 ft 271 kts 122°
2026-04-17 15:00 56.83417 23.76042 1755 ft 259 kts 122°
2026-04-17 15:01 56.82379 23.78746 1282 ft 266 kts 122°
2026-04-17 15:01 56.81113 23.81210 1134 ft 267 kts 145°
2026-04-17 15:01 56.79515 23.82920 1307 ft 270 kts 145°
2026-04-17 15:01 56.78001 23.84929 1443 ft 268 kts 138°
2026-04-17 15:02 56.76634 23.87061 1461 ft 248 kts 136°
2026-04-17 15:02 56.75378 23.89048 1482 ft 238 kts 135°
2026-04-17 15:02 56.74214 23.91282 1379 ft 249 kts 114°
2026-04-17 15:02 56.73816 23.94295 1504 ft 251 kts 83°
2026-04-17 15:03 56.74309 23.97314 1681 ft 247 kts 55°
2026-04-17 15:03 56.75501 23.99379 1784 ft 238 kts 26°
2026-04-17 15:03 56.77099 24.00039 1906 ft 239 kts 356°